EW1060 Weather Reports


Display with metric or nautical units.
time (UTC)temp
F
wind
direction
speed
MPH
gust
MPH
rain 1hr
in
rain 24hr
in
rain mn
in
humidity
%
barometer
mb
20190120230011 30 182 0.0 0.0 0.00 0.00 0.00 95 1019.2
20190120224518 30 182 0.0 0.0 0.00 0.00 0.00 95 1019.2
20190120223001 30 182 0.0 1.0 0.00 0.00 0.00 95 1019.1
20190120221702 30 182 0.0 0.0 0.00 0.00 0.00 95 1019.0
20190120220134 30 182 0.0 2.0 0.00 0.00 0.00 95 1018.9
20190120214635 29 211 0.0 2.0 0.00 0.00 0.00 95 1018.6
20190120213207 29 211 0.0 0.0 0.00 0.00 0.00 95 1018.5
20190120211620 29 211 0.0 0.0 0.00 0.00 0.00 95 1018.4
20190120210147 30 211 0.0 1.0 0.00 0.00 0.00 95 1018.3
20190120204638 30 211 0.0 1.0 0.00 0.00 0.00 94 1018.3
20190120203056 30 211 0.0 0.0 0.00 0.00 0.00 94 1018.2
20190120201555 30 211 0.0 0.0 0.00 0.00 0.00 94 1017.9
20190120200218 30 211 0.0 0.0 0.00 0.00 0.00 94 1017.8
20190120194620 30 211 0.0 0.0 0.00 0.00 0.00 94 1017.7
20190120193058 30 211 0.0 0.0 0.00 0.00 0.00 94 1017.6
20190120191611 30 211 0.0 0.0 0.00 0.00 0.00 94 1017.5
20190120190115 30 211 0.0 1.0 0.00 0.00 0.00 94 1017.4
20190120184642 30 211 0.0 1.0 0.00 0.00 0.00 94 1017.3
20190120183112 30 211 0.0 0.0 0.00 0.00 0.00 93 1017.2
20190120181641 30 211 0.0 2.0 0.00 0.00 0.00 93 1017.2
20190120180159 31 232 0.0 1.0 0.00 0.00 0.00 92 1017.1
20190120174604 31 171 0.0 0.0 0.00 0.00 0.00 92 1016.8
20190120173110 32 171 0.0 0.0 0.00 0.00 0.00 91 1016.6
20190120171551 32 171 0.0 0.0 0.00 0.00 0.00 90 1016.7
20190120170052 33 171 0.0 0.0 0.00 0.00 0.00 90 1016.6
20190120164603 33 171 0.0 0.0 0.00 0.00 0.00 89 1016.5
20190120163056 34 171 0.0 0.0 0.00 0.00 0.00 87 1016.3
20190120161609 35 171 0.0 0.0 0.00 0.00 0.00 87 1016.3
20190120160100 35 171 0.0 0.0 0.00 0.00 0.00 84 1016.1
20190120154602 36 171 0.0 0.0 0.00 0.00 0.00 83 1016.1
20190120153121 36 171 0.0 0.0 0.00 0.00 0.00 84 1016.0
20190120151550 36 171 0.0 0.0 0.00 0.00 0.00 81 1016.0
20190120150156 36 171 0.0 1.0 0.00 0.00 0.00 80 1015.9
20190120144618 36 171 0.0 2.0 0.00 0.00 0.00 79 1015.8
20190120143108 36 171 0.0 0.0 0.00 0.00 0.00 79 1015.8
20190120141552 36 171 0.0 1.0 0.00 0.00 0.00 78 1015.7
20190120140051 37 171 0.0 2.0 0.00 0.00 0.00 77 1015.6
20190120134610 37 302 1.0 3.0 0.00 0.00 0.00 76 1015.6
20190120133054 37 56 0.0 3.0 0.00 0.00 0.00 77 1015.6
20190120131532 37 20 1.0 3.0 0.00 0.00 0.00 75 1015.7
20190120130142 37 17 0.0 3.0 0.00 0.00 0.00 78 1015.7
20190120124606 37 342 0.0 5.0 0.00 0.00 0.00 79 1015.7
20190120123106 36 5 0.0 2.0 0.00 0.00 0.00 81 1015.6
20190120121532 35 61 0.0 3.0 0.00 0.00 0.00 84 1015.7
20190120120053 35 160 0.0 2.0 0.00 0.00 0.00 84 1016.0
20190120114520 34 160 0.0 1.0 0.00 0.01 0.00 83 1016.2
20190120113024 34 160 0.0 1.0 0.00 0.01 0.00 83 1016.3
20190120111512 33 160 0.0 0.0 0.00 0.01 0.00 84 1016.3
20190120110011 33 160 0.0 0.0 0.00 0.01 0.00 85 1016.3
20190120104519 32 160 0.0 2.0 0.00 0.01 0.00 88 1016.4
20190120103221 31 160 0.0 2.0 0.00 0.01 0.00 87 1016.6
20190120101701 31 160 0.0 2.0 0.00 0.01 0.00 88 1016.6
20190120100128 30 160 0.0 2.0 0.00 0.01 0.00 90 1016.6
20190120094638 30 160 0.0 1.0 0.00 0.01 0.00 90 1016.5
20190120093141 29 160 0.0 2.0 0.00 0.01 0.00 91 1016.4
20190120091611 28 160 0.0 1.0 0.00 0.01 0.00 93 1016.3
20190120090144 28 160 0.0 2.0 0.00 0.01 0.00 94 1016.1
20190120084612 27 160 1.0 3.0 0.00 0.01 0.00 95 1016.0
20190120083102 26 160 0.0 3.0 0.00 0.01 0.00 96 1015.9
20190120081616 26 160 0.0 2.0 0.00 0.01 0.00 96 1015.8
20190120080045 25 160 0.0 0.0 0.00 0.01 0.00 96 1015.7
20190120073040 25 160 0.0 0.0 0.00 0.01 0.00 96 1015.5
20190120071538 24 160 0.0 0.0 0.00 0.01 0.00 96 1015.4
20190120070029 24 160 0.0 0.0 0.00 0.01 0.00 96 1015.3
20190120064521 24 160 0.0 0.0 0.00 0.01 0.00 95 1015.5
20190120063048 24 160 0.0 0.0 0.00 0.01 0.00 95 1015.3
20190120061519 24 160 0.0 0.0 0.00 0.01 0.00 95 1015.2
20190120060103 24 160 0.0 0.0 0.00 0.01 0.00 96 1015.1
20190120054616 24 160 0.0 0.0 0.00 0.01 0.00 95 1015.1
20190120053024 24 160 0.0 0.0 0.00 0.01 0.00 95 1015.1
20190120051517 24 160 0.0 0.0 0.00 0.01 0.00 95 1015.0
20190120050036 24 160 0.0 0.0 0.00 0.01 0.00 95 1014.9
20190120044522 24 160 0.0 1.0 0.00 0.01 0.00 95 1014.9
20190120043025 24 160 0.0 0.0 0.00 0.01 0.00 95 1014.9
20190120041515 24 160 0.0 2.0 0.00 0.01 0.00 95 1015.0
20190120040020 24 160 0.0 0.0 0.00 0.01 0.00 95 1015.0
20190120034524 24 160 0.0 0.0 0.00 0.01 0.00 95 1015.1
20190120033021 24 160 0.0 0.0 0.00 0.01 0.00 95 1015.2
20190120031508 24 160 0.0 0.0 0.00 0.01 0.00 95 1015.2
20190120030045 24 160 0.0 0.0 0.00 0.01 0.00 95 1015.2
20190120024507 24 160 0.0 0.0 0.00 0.01 0.00 95 1015.3
20190120023026 24 160 0.0 0.0 0.00 0.01 0.00 95 1015.3
20190120021511 24 160 0.0 0.0 0.00 0.01 0.00 95 1015.3
20190120020007 24 160 0.0 0.0 0.00 0.01 0.00 95 1015.4
20190120014502 24 160 0.0 0.0 0.00 0.01 0.00 95 1015.3
20190120013140 24 160 0.0 0.0 0.00 0.01 0.00 95 1015.3
20190120011653 24 160 0.0 0.0 0.00 0.01 0.00 95 1015.2
20190120010146 24 160 0.0 0.0 0.00 0.01 0.00 95 1015.3
20190120004725 23 160 0.0 0.0 0.00 0.01 0.00 95 1015.3
20190120003330 23 160 0.0 0.0 0.00 0.01 0.00 95 1015.3
20190120001652 23 160 0.0 0.0 0.00 0.01 0.00 95 1015.3
20190120000143 23 160 0.0 0.0 0.00 0.01 0.00 95 1015.3
20190119234725 23 160 0.0 0.0 0.00 0.01 0.00 95 1015.3
20190119233135 23 160 0.0 0.0 0.00 0.01 0.00 95 1015.2
20190119231656 23 160 0.0 1.0 0.00 0.01 0.00 94 1015.3